Home > Weather > Ansbach > Past weeks

Flag for Germany Weather for the Past 2 Weeks in Ansbach, Bavaria, Germany

Now
36 °F

Clear.


Feels Like: 32 °F
Forecast: 39 / 51 °F
Wind: 5 mph from Southeast

Location: Ansbach / Katterbach

Current Time: Feb 7, 2016 at 5:22:24 AM

Latest Report: Feb 7, 2016 at 3:58 AM


Visibility: N/A

Pressure: 29.80 "Hg

Humidity: 93%

Dew point: 34 °F

Location of AnsbachLocation

Historic Weather in Ansbach — Graph

°F

Ansbach Temperature Yesterday

Maximum temperature yesterday: 50 °F (at 1:58 PM)
Minimum temperature yesterday: 34 °F (at 4:58 AM)
Average temperature yesterday: 41 °F

High & Low Weather Summary for the Past Weeks

 TemperatureHumidityPressure
High55 °F (Jan 26, 2:58 PM)100% (Jan 23, 4:59 AM)30.70 "Hg (Jan 23, 4:59 AM)
Low24 °F (Jan 23, 3:58 AM)51% (Jan 27, 1:58 PM)29.80 "Hg (Feb 7, 2:58 AM)
Average41 °F88%30.27 "Hg
* Reported Jan 23 3:58 AM — Feb 7 3:58 AM, Ansbach, Weather by CustomWeather, © 2016

Note: Actual official high and low records may vary slightly from our data, if they occured in-between our weather recording intervals... More about our weather records

Advertising

Ansbach Weather History for the Previous 24 Hours

 ConditionsComfort  
Time TempWeatherWind HumidityBarometerVisibility
3:58 AM
Sun, Feb 7
36 °FClear.5 mph93%29.80 "HgN/A
2:58 AM36 °FClear.8 mph93%29.80 "HgN/A
1:58 AM37 °FClear.6 mph93%29.81 "HgN/A
12:58 AM39 °FClear.8 mph87%29.82 "HgN/A
11:58 PM
Sat, Feb 6
39 °FClear.8 mph93%29.85 "HgN/A
10:58 PM39 °FClear.5 mph87%29.88 "HgN/A
9:58 PM43 °FClear.6 mph81%29.90 "HgN/A
8:58 PM41 °FClear.6 mph87%29.93 "HgN/A
7:58 PM43 °FClear.7 mph81%29.96 "HgN/A
6:58 PM45 °FClear.9 mph81%29.98 "HgN/A
5:58 PM45 °FClear.8 mph81%30.01 "HgN/A
4:58 PM46 °FSunny.10 mph82%30.02 "HgN/A
3:58 PM48 °FSunny.9 mph76%30.03 "HgN/A
2:58 PM50 °FSunny.7 mph71%30.05 "HgN/A
1:58 PM50 °FPassing clouds.8 mph67%30.07 "HgN/A
12:58 PM48 °FSunny.7 mph71%30.10 "HgN/A
11:58 AM45 °FPassing clouds.12 mph76%30.13 "HgN/A
10:58 AM41 °FSunny.6 mph87%30.17 "HgN/A
9:58 AM37 °FSunny.7 mph93%30.17 "HgN/A
8:58 AM36 °FSunny.7 mph87%30.18 "HgN/A
7:58 AM36 °FSunny.8 mph93%30.18 "HgN/A
6:58 AM36 °FClear.9 mph87%30.18 "HgN/A
5:58 AM34 °FClear.9 mph93%30.19 "HgN/A
Weather by CustomWeather, © 2016

See weather overviewHow to use our weather pages